,,Stat1,,Stat2,,Stat3,,Stat4,,Wind1,,Wind1,
time,status,PR1M_SUM,status,RH1M_AVG,status,SR1M_AVG,status,TA1M_AVG,status,W1dAve1m,status,W1sAve1m,
1999-11-07, 00:00:01,VALID,0,VALID,99.9672,VALID,0,VALID,18.9327,VALID,110,VALID,0.3456,
1999-11-07, 00:01:00,VALID,0,VALID,99.9659,VALID,0,VALID,18.9325,VALID,107,VALID,0.598684,
1999-11-07, 00:02:00,VALID,0,VALID,99.9799,VALID,0.0169808,VALID,18.9357,VALID,317,VALID,0.197852,
1999-11-07, 00:03:01,VALID,0,VALID,99.9825,VALID,0.0339617,VALID,18.9422,VALID,141,VALID,0.169271,
1999-11-07, 00:04:00,VALID,0,VALID,99.9977,VALID,0,VALID,18.9554,VALID,100,VALID,0.79579,
1999-11-07, 00:05:00,VALID,0,VALID,100,VALID,0,VALID,18.9713,VALID,79,VALID,0.291118,
1999-11-07, 00:06:00,VALID,0,VALID,99.999,VALID,0.0339617,VALID,18.9648,VALID,98,VALID,0.774023,
1999-11-07, 00:07:00,VALID,0,VALID,99.998,VALID,0,VALID,18.9683,VALID,58,VALID,0.570313,
1999-11-07, 00:08:00,VALID,0,VALID,99.9957,VALID,0.0169808,VALID,18.9688,VALID,83,VALID,0.505145,
1999-11-07, 00:09:00,VALID,0,VALID,99.998,VALID,0.0339617,VALID,18.965,VALID,93,VALID,0.49641,
1999-11-07, 00:10:00,VALID,0,VALID,99.999,VALID,0.0339617,VALID,18.9486,VALID,105,VALID,0.0536318,
1999-11-07, 00:11:00,VALID,0,VALID,99.9941,VALID,0.0169808,VALID,18.9489,VALID,107,VALID,1.14603,
1999-11-07, 00:12:00,VALID,0,VALID,100,VALID,0.0169808,VALID,18.9546,VALID,78,VALID,0.758429,
1999-11-07, 00:13:00,VALID,0,VALID,100,VALID,0.0339617,VALID,18.9844,VALID,96,VALID,0.13598,
1999-11-07, 00:14:01,VALID,0,VALID,100,VALID,0.0509425,VALID,18.9715,VALID,134,VALID,0,
1999-11-07, 00:15:00,VALID,0,VALID,100,VALID,0.0169808,VALID,18.9621,VALID,131,VALID,0,
1999-11-07, 00:16:00,VALID,0,VALID,100,VALID,0.0169808,VALID,18.975,VALID,87,VALID,0,
1999-11-07, 00:17:00,VALID,0,VALID,100,VALID,0.0169808,VALID,18.972,VALID,292,VALID,0,
1999-11-07, 00:18:00,VALID,0,VALID,99.999,VALID,0,VALID,18.9551,VALID,238,VALID,0,
1999-11-07, 00:19:00,VALID,0,VALID,99.999,VALID,0,VALID,18.9459,VALID,194,VALID,0,
1999-11-07, 00:20:00,VALID,0,VALID,100,VALID,0,VALID,18.9454,VALID,92,VALID,0,
1999-11-07, 00:21:00,VALID,0,VALID,100,VALID,0.0169808,VALID,18.9524,VALID,115,VALID,0,
1999-11-07, 00:22:00,VALID,0,VALID,100,VALID,0.0339617,VALID,18.9392,VALID,123,VALID,0,
1999-11-07, 00:23:00,VALID,0,VALID,100,VALID,0.0169808,VALID,18.9389,VALID,167,VALID,0,
1999-11-07, 00:24:01,VALID,0,VALID,100,VALID,0,VALID,18.9357,VALID,224,VALID,0,
1999-11-07, 00:25:01,VALID,0,VALID,100,VALID,0,VALID,18.9332,VALID,232,VALID,0.015625,
1999-11-07, 00:26:00,VALID,0,VALID,100,VALID,-0.0169808,VALID,18.926,VALID,179,VALID,0.678886,
1999-11-07, 00:27:00,VALID,0,VALID,100,VALID,-0.0509425,VALID,18.9501,VALID,110,VALID,0.800164,
1999-11-07, 00:28:00,VALID,0,VALID,100,VALID,-0.101885,VALID,18.9565,VALID,96,VALID,1.31461,
1999-11-07, 00:29:00,VALID,0,VALID,100,VALID,-0.101885,VALID,18.9831,VALID,94,VALID,0.597039,
1999-11-07, 00:30:00,VALID,0,VALID,100,VALID,-0.0849042,VALID,18.9533,VALID,97,VALID,0.8456,
1999-11-07, 00:31:00,VALID,0,VALID,100,VALID,-0.0849042,VALID,18.9409,VALID,120,VALID,0.184766,
1999-11-07, 00:32:00,VALID,0,VALID,100,VALID,-0.101885,VALID,18.9342,VALID,154,VALID,0.315487,
1999-11-07, 00:33:00,VALID,0,VALID,100,VALID,-0.118866,VALID,18.9081,VALID,100,VALID,0.709248,
1999-11-07, 00:34:00,VALID,0,VALID,100,VALID,-0.101885,VALID,18.918,VALID,85,VALID,0.516544,
1999-11-07, 00:35:00,VALID,0,VALID,100,VALID,-0.0849042,VALID,18.9207,VALID,65,VALID,0.372613,
1999-11-07, 00:36:01,VALID,0,VALID,100,VALID,-0.0679233,VALID,18.9247,VALID,91,VALID,1.12726,
1999-11-07, 00:37:00,VALID,0,VALID,100,VALID,-0.101885,VALID,18.9249,VALID,99,VALID,1.29502,
1999-11-07, 00:38:00,VALID,0,VALID,100,VALID,-0.101885,VALID,18.9307,VALID,93,VALID,1.12805,
1999-11-07, 00:39:00,VALID,0,VALID,100,VALID,-0.101885,VALID,18.9379,VALID,103,VALID,1.33594,
1999-11-07, 00:40:00,VALID,0,VALID,100,VALID,-0.118866,VALID,18.918,VALID,91,VALID,1.42842,
1999-11-07, 00:41:00,VALID,0,VALID,100,VALID,-0.101885,VALID,18.9085,VALID,103,VALID,0.856497,
1999-11-07, 00:42:00,VALID,0,VALID,100,VALID,-0.0339617,VALID,18.921,VALID,120,VALID,0.646289,
1999-11-07, 00:43:00,VALID,0,VALID,100,VALID,-0.0679233,VALID,18.9145,VALID,92,VALID,0.0517314,
1999-11-07, 00:44:00,VALID,0,VALID,100,VALID,-0.0509425,VALID,18.9073,VALID,216,VALID,0,
1999-11-07, 00:45:00,VALID,0,VALID,100,VALID,-0.0509425,VALID,18.8979,VALID,155,VALID,0,
1999-11-07, 00:46:00,VALID,0,VALID,100,VALID,0,VALID,18.8877,VALID,97,VALID,0,
1999-11-07, 00:47:00,VALID,0,VALID,100,VALID,-0.0169808,VALID,18.9004,VALID,122,VALID,0,
1999-11-07, 00:48:00,VALID,0,VALID,100,VALID,-0.0169808,VALID,18.8879,VALID,93,VALID,0.27241,
1999-11-07, 00:49:00,VALID,0,VALID,100,VALID,-0.0169808,VALID,18.8979,VALID,104,VALID,1.02555,
1999-11-07, 00:50:00,VALID,0,VALID,100,VALID,-0.0169808,VALID,18.9078,VALID,92,VALID,0.925164,
1999-11-07, 00:51:00,VALID,0,VALID,100,VALID,0,VALID,18.884,VALID,97,VALID,1.0609,
1999-11-07, 00:52:00,VALID,0,VALID,100,VALID,-0.0339617,VALID,18.8884,VALID,91,VALID,0.994992,
1999-11-07, 00:53:00,VALID,0,VALID,100,VALID,-0.0679233,VALID,18.8586,VALID,95,VALID,0.139223,
1999-11-07, 00:54:00,VALID,0,VALID,100,VALID,-0.0509425,VALID,18.8685,VALID,184,VALID,0,
1999-11-07, 00:55:00,VALID,0,VALID,100,VALID,-0.0339617,VALID,18.8653,VALID,93,VALID,0.311719,
1999-11-07, 00:56:00,VALID,0,VALID,100,VALID,-0.0679233,VALID,18.875,VALID,223,VALID,0.354235,
1999-11-07, 00:57:00,VALID,0,VALID,100,VALID,-0.0339617,VALID,18.8621,VALID,271,VALID,0,
1999-11-07, 00:58:00,VALID,0,VALID,100,VALID,-0.0339617,VALID,18.8524,VALID,199,VALID,0,
1999-11-07, 00:59:00,VALID,0,VALID,100,VALID,-0.0339617,VALID,18.8559,VALID,127,VALID,0,
1999-11-07, 01:00:00,VALID,0,VALID,100,VALID,-0.0509425,VALID,18.8752,VALID,129,VALID,0,
1999-11-07, 01:01:00,VALID,0,VALID,100,VALID,0,VALID,18.9011,VALID,120,VALID,0,
1999-11-07, 01:02:00,VALID,0,VALID,100,VALID,-0.0509425,VALID,18.8879,VALID,128,VALID,0,
1999-11-07, 01:03:00,VALID,0,VALID,100,VALID,-0.0169808,VALID,18.8817,VALID,172,VALID,0,
1999-11-07, 01:04:00,VALID,0,VALID,100,VALID,-0.0509425,VALID,18.8621,VALID,68,VALID,0,
1999-11-07, 01:05:00,VALID,0,VALID,100,VALID,-0.0339617,VALID,18.8369,VALID,319,VALID,0,
1999-11-07, 01:06:00,VALID,0,VALID,100,VALID,-0.0339617,VALID,18.8074,VALID,323,VALID,0,
1999-11-07, 01:07:00,VALID,0,VALID,100,VALID,-0.0339617,VALID,18.8339,VALID,276,VALID,0,
1999-11-07, 01:08:00,VALID,0,VALID,100,VALID,-0.0339617,VALID,18.8071,VALID,335,VALID,0,
1999-11-07, 01:09:00,VALID,0,VALID,100,VALID,-0.0169808,VALID,18.8205,VALID,340,VALID,0,
1999-11-07, 01:10:00,VALID,0,VALID,100,VALID,-0.0679233,VALID,18.8108,VALID,335,VALID,0,
1999-11-07, 01:11:00,VALID,0,VALID,100,VALID,-0.0509425,VALID,18.8004,VALID,333,VALID,0,
1999-11-07, 01:12:00,VALID,0,VALID,100,VALID,-0.0509425,VALID,18.8235,VALID,333,VALID,0,
1999-11-07, 01:13:00,VALID,0,VALID,100,VALID,-0.0169808,VALID,18.8454,VALID,333,VALID,0,
1999-11-07, 01:14:00,VALID,0,VALID,100,VALID,-0.0339617,VALID,18.8847,VALID,341,VALID,0,
1999-11-07, 01:15:00,VALID,0,VALID,100,VALID,-0.0339617,VALID,18.8817,VALID,321,VALID,0,
1999-11-07, 01:16:00,VALID,0,VALID,100,VALID,0,VALID,18.869,VALID,321,VALID,0,
1999-11-07, 01:17:00,VALID,0,VALID,100,VALID,-0.0169808,VALID,18.8621,VALID,286,VALID,0,
1999-11-07, 01:18:00,VALID,0,VALID,100,VALID,-0.0679233,VALID,18.8656,VALID,284,VALID,0,
1999-11-07, 01:19:00,VALID,0,VALID,100,VALID,-0.0509425,VALID,18.8459,VALID,253,VALID,0,
1999-11-07, 01:20:00,VALID,0,VALID,100,VALID,-0.0509425,VALID,18.8268,VALID,125,VALID,0,
1999-11-07, 01:21:00,VALID,0,VALID,100,VALID,0,VALID,18.8362,VALID,119,VALID,0,
1999-11-07, 01:22:00,VALID,0,VALID,100,VALID,-0.0169808,VALID,18.8621,VALID,125,VALID,0,
1999-11-07, 01:23:00,VALID,0,VALID,100,VALID,0,VALID,18.8325,VALID,83,VALID,0,
1999-11-07, 01:24:00,VALID,0,VALID,100,VALID,-0.0339617,VALID,18.8226,VALID,106,VALID,0,
1999-11-07, 01:25:00,VALID,0,VALID,100,VALID,-0.0339617,VALID,18.8298,VALID,106,VALID,0,
1999-11-07, 01:26:00,VALID,0,VALID,100,VALID,-0.0169808,VALID,18.8233,VALID,144,VALID,0,
1999-11-07, 01:27:00,VALID,0,VALID,100,VALID,0,VALID,18.8399,VALID,120,VALID,0,
1999-11-07, 01:28:00,VALID,0,VALID,100,VALID,-0.0169808,VALID,18.8561,VALID,120,VALID,0,
1999-11-07, 01:29:00,VALID,0,VALID,100,VALID,0,VALID,18.8752,VALID,119,VALID,0,
1999-11-07, 01:30:00,VALID,0,VALID,100,VALID,-0.0169808,VALID,18.878,VALID,117,VALID,0,
1999-11-07, 01:31:00,VALID,0,VALID,100,VALID,-0.0339617,VALID,18.8879,VALID,100,VALID,0,
1999-11-07, 01:32:00,VALID,0,VALID,100,VALID,-0.0169808,VALID,18.8618,VALID,99,VALID,0,
1999-11-07, 01:33:00,VALID,0,VALID,100,VALID,-0.0339617,VALID,18.8422,VALID,84,VALID,0.588542,
1999-11-07, 01:34:00,VALID,0,VALID,100,VALID,-0.0339617,VALID,18.8265,VALID,81,VALID,0.391026,
1999-11-07, 01:35:00,VALID,0,VALID,100,VALID,-0.0339617,VALID,18.8563,VALID,83,VALID,0.0945724,
1999-11-07, 01:36:00,VALID,0,VALID,100,VALID,-0.0339617,VALID,18.83,VALID,90,VALID,0,
1999-11-07, 01:37:00,VALID,0,VALID,100,VALID,-0.0169808,VALID,18.8104,VALID,83,VALID,0,
1999-11-07, 01:38:00,VALID,0,VALID,100,VALID,-0.0509425,VALID,18.8198,VALID,102,VALID,0,
1999-11-07, 01:39:00,VALID,0,VALID,100,VALID,-0.0679233,VALID,18.8367,VALID,120,VALID,0,
1999-11-07, 01:40:00,VALID,0,VALID,100,VALID,-0.0339617,VALID,18.8459,VALID,103,VALID,0,
1999-11-07, 01:41:00,VALID,0,VALID,100,VALID,-0.0679233,VALID,18.8325,VALID,122,VALID,0,
1999-11-07, 01:42:00,VALID,0,VALID,100,VALID,-0.0169808,VALID,18.8198,VALID,101,VALID,0,
1999-11-07, 01:43:00,VALID,0,VALID,100,VALID,-0.0339617,VALID,18.8566,VALID,106,VALID,0,
1999-11-07, 01:44:00,VALID,0,VALID,100,VALID,-0.0509425,VALID,18.8658,VALID,98,VALID,0,
1999-11-07, 01:45:00,VALID,0,VALID,100,VALID,-0.0339617,VALID,18.863,VALID,92,VALID,0,
1999-11-07, 01:46:00,VALID,0,VALID,100,VALID,-0.0509425,VALID,18.8499,VALID,92,VALID,0,
1999-11-07, 01:47:00,VALID,0,VALID,100,VALID,-0.0509425,VALID,18.8399,VALID,97,VALID,0,
1999-11-07, 01:48:00,VALID,0,VALID,100,VALID,-0.0169808,VALID,18.8471,VALID,114,VALID,0,
1999-11-07, 01:49:00,VALID,0,VALID,100,VALID,-0.0849042,VALID,18.7979,VALID,102,VALID,0,
1999-11-07, 01:50:00,VALID,0,VALID,100,VALID,-0.0849042,VALID,18.8141,VALID,80,VALID,0,
1999-11-07, 01:51:00,VALID,0,VALID,100,VALID,-0.0509425,VALID,18.8238,VALID,92,VALID,0,
1999-11-07, 01:52:01,VALID,0,VALID,100,VALID,-0.0679233,VALID,18.8568,VALID,104,VALID,0,
1999-11-07, 01:53:00,VALID,0,VALID,100,VALID,-0.0679233,VALID,18.8628,VALID,81,VALID,0,
1999-11-07, 01:54:00,VALID,0,VALID,100,VALID,-0.0679233,VALID,18.8593,VALID,68,VALID,0,
1999-11-07, 01:55:00,VALID,0,VALID,100,VALID,-0.0339617,VALID,18.8658,VALID,345,VALID,0,
1999-11-07, 01:56:00,VALID,0,VALID,100,VALID,-0.0679233,VALID,18.8663,VALID,120,VALID,0,
1999-11-07, 01:57:00,VALID,0,VALID,100,VALID,-0.0509425,VALID,18.8628,VALID,154,VALID,0,
1999-11-07, 01:58:00,VALID,0,VALID,100,VALID,-0.0679233,VALID,18.8469,VALID,125,VALID,0,
1999-11-07, 01:59:00,VALID,0,VALID,100,VALID,-0.0509425,VALID,18.8406,VALID,138,VALID,0,
1999-11-07, 02:00:00,VALID,0,VALID,100,VALID,-0.0679233,VALID,18.8369,VALID,116,VALID,0,
1999-11-07, 02:01:00,VALID,0,VALID,100,VALID,-0.0169808,VALID,18.8434,VALID,116,VALID,0,
1999-11-07, 02:02:00,VALID,0,VALID,100,VALID,-0.0339617,VALID,18.8663,VALID,116,VALID,0,
1999-11-07, 02:03:00,VALID,0,VALID,100,VALID,-0.0849042,VALID,18.8563,VALID,116,VALID,0,
1999-11-07, 02:04:00,VALID,0,VALID,100,VALID,-0.0679233,VALID,18.8434,VALID,116,VALID,0,
1999-11-07, 02:05:00,VALID,0,VALID,100,VALID,-0.0679233,VALID,18.8399,VALID,148,VALID,0,
1999-11-07, 02:06:00,VALID,0,VALID,100,VALID,-0.0169808,VALID,18.8339,VALID,153,VALID,0,
1999-11-07, 02:07:00,VALID,0,VALID,100,VALID,-0.0509425,VALID,18.8108,VALID,153,VALID,0,
1999-11-07, 02:08:00,VALID,0,VALID,100,VALID,-0.0679233,VALID,18.8113,VALID,110,VALID,0,
1999-11-07, 02:09:00,VALID,0,VALID,100,VALID,-0.0339617,VALID,18.8143,VALID,101,VALID,0,
1999-11-07, 02:10:00,VALID,0,VALID,100,VALID,-0.0339617,VALID,18.8272,VALID,98,VALID,0,
1999-11-07, 02:11:00,VALID,0,VALID,100,VALID,-0.0509425,VALID,18.8173,VALID,99,VALID,0,
1999-11-07, 02:12:00,VALID,0,VALID,100,VALID,-0.0339617,VALID,18.8268,VALID,114,VALID,0,
1999-11-07, 02:13:01,VALID,0,VALID,100,VALID,0.0849042,VALID,18.8484,VALID,107,VALID,0,
1999-11-07, 02:14:00,VALID,0,VALID,100,VALID,0.0849042,VALID,18.8544,VALID,118,VALID,0,
1999-11-07, 02:15:00,VALID,0,VALID,100,VALID,0.0339617,VALID,18.8353,VALID,79,VALID,0,
1999-11-07, 02:16:00,VALID,0,VALID,100,VALID,0.0679233,VALID,18.8424,VALID,104,VALID,0,
1999-11-07, 02:17:00,VALID,0,VALID,100,VALID,0.0509425,VALID,18.8318,VALID,101,VALID,0,
1999-11-07, 02:18:00,VALID,0,VALID,100,VALID,0.0679233,VALID,18.829,VALID,88,VALID,0,
1999-11-07, 02:19:00,VALID,0,VALID,100,VALID,0.0339617,VALID,18.8293,VALID,109,VALID,0,
1999-11-07, 02:20:00,VALID,0,VALID,100,VALID,0.0509425,VALID,18.8454,VALID,113,VALID,0,
1999-11-07, 02:21:00,VALID,0,VALID,100,VALID,0.0679233,VALID,18.8584,VALID,111,VALID,0,
1999-11-07, 02:22:00,VALID,0,VALID,100,VALID,0.0849042,VALID,18.8681,VALID,107,VALID,0,
1999-11-07, 02:23:00,VALID,0,VALID,100,VALID,0.0509425,VALID,18.8618,VALID,118,VALID,0,
1999-11-07, 02:24:00,VALID,0,VALID,100,VALID,0.0679233,VALID,18.8547,VALID,104,VALID,0,
1999-11-07, 02:25:00,VALID,0,VALID,100,VALID,0.0509425,VALID,18.8771,VALID,106,VALID,0,
1999-11-07, 02:26:00,VALID,0,VALID,100,VALID,0.0679233,VALID,18.9066,VALID,103,VALID,0,
1999-11-07, 02:27:00,VALID,0,VALID,100,VALID,0.0509425,VALID,18.887,VALID,101,VALID,0,
1999-11-07, 02:28:00,VALID,0,VALID,100,VALID,-0.0339617,VALID,18.8852,VALID,101,VALID,0,
1999-11-07, 02:29:00,VALID,0,VALID,100,VALID,-0.0849042,VALID,18.8887,VALID,101,VALID,0,
1999-11-07, 02:30:00,VALID,0,VALID,100,VALID,-0.0169808,VALID,18.8921,VALID,101,VALID,0,
1999-11-07, 02:31:00,VALID,0,VALID,100,VALID,-0.0509425,VALID,18.9016,VALID,109,VALID,0,
1999-11-07, 02:32:00,VALID,0,VALID,100,VALID,-0.0849042,VALID,18.9182,VALID,108,VALID,0,
1999-11-07, 02:33:00,VALID,0,VALID,100,VALID,-0.0679233,VALID,18.9148,VALID,111,VALID,0,
1999-11-07, 02:34:00,VALID,0,VALID,100,VALID,-0.0849042,VALID,18.9118,VALID,107,VALID,0,
1999-11-07, 02:35:01,VALID,0,VALID,100,VALID,-0.0339617,VALID,18.9009,VALID,95,VALID,0,
1999-11-07, 02:36:01,VALID,0,VALID,100,VALID,-0.0169808,VALID,18.9113,VALID,110,VALID,0,
1999-11-07, 02:37:00,VALID,0,VALID,100,VALID,-0.0679233,VALID,18.9145,VALID,109,VALID,0,
1999-11-07, 02:38:00,VALID,0,VALID,100,VALID,-0.0339617,VALID,18.9016,VALID,104,VALID,0,
1999-11-07, 02:39:00,VALID,0,VALID,100,VALID,-0.0169808,VALID,18.9016,VALID,84,VALID,0,
1999-11-07, 02:40:00,VALID,0,VALID,100,VALID,0,VALID,18.8981,VALID,90,VALID,0,
1999-11-07, 02:41:00,VALID,0,VALID,100,VALID,-0.0339617,VALID,18.8882,VALID,108,VALID,0,
1999-11-07, 02:42:00,VALID,0,VALID,100,VALID,-0.0339617,VALID,18.8914,VALID,99,VALID,0,
1999-11-07, 02:43:00,VALID,0,VALID,100,VALID,0.0339617,VALID,18.8748,VALID,105,VALID,0,
1999-11-07, 02:44:00,VALID,0.2,VALID,100,VALID,0.0339617,VALID,18.8618,VALID,92,VALID,0,
1999-11-07, 02:45:00,VALID,0,VALID,100,VALID,0.0169808,VALID,18.8554,VALID,86,VALID,0,
1999-11-07, 02:46:01,VALID,0,VALID,100,VALID,0,VALID,18.8648,VALID,119,VALID,0,
1999-11-07, 02:47:01,VALID,0,VALID,100,VALID,-0.0169808,VALID,18.8683,VALID,85,VALID,0,
1999-11-07, 02:48:00,VALID,0,VALID,100,VALID,0,VALID,18.8618,VALID,89,VALID,0,
1999-11-07, 02:49:00,VALID,0,VALID,100,VALID,0.0339617,VALID,18.8588,VALID,83,VALID,0,
1999-11-07, 02:50:00,VALID,0,VALID,100,VALID,-0.0169808,VALID,18.8586,VALID,97,VALID,0,
1999-11-07, 02:51:00,VALID,0,VALID,100,VALID,0,VALID,18.8656,VALID,104,VALID,0,
1999-11-07, 02:52:00,VALID,0,VALID,100,VALID,-0.0169808,VALID,18.8656,VALID,108,VALID,0,
1999-11-07, 02:53:00,VALID,0,VALID,100,VALID,0,VALID,18.8653,VALID,95,VALID,0,
1999-11-07, 02:54:00,VALID,0,VALID,100,VALID,0,VALID,18.8491,VALID,60,VALID,0,
1999-11-07, 02:55:00,VALID,0,VALID,100,VALID,0,VALID,18.8101,VALID,302,VALID,0,
1999-11-07, 02:56:00,VALID,0,VALID,100,VALID,0,VALID,18.797,VALID,247,VALID,0,
1999-11-07, 02:57:00,VALID,0,VALID,100,VALID,0,VALID,18.8034,VALID,223,VALID,0,
1999-11-07, 02:58:01,VALID,0,VALID,100,VALID,0,VALID,18.8295,VALID,150,VALID,0,
1999-11-07, 02:59:00,VALID,0,VALID,100,VALID,0,VALID,18.8233,VALID,157,VALID,0,
1999-11-07, 03:00:00,VALID,0,VALID,100,VALID,0.0169808,VALID,18.8231,VALID,191,VALID,0,
1999-11-07, 03:01:00,VALID,0.2,VALID,100,VALID,0,VALID,18.8198,VALID,215,VALID,0,
1999-11-07, 03:02:00,VALID,0,VALID,100,VALID,0,VALID,18.8265,VALID,213,VALID,0,
1999-11-07, 03:03:00,VALID,0,VALID,100,VALID,0,VALID,18.8203,VALID,213,VALID,0,
1999-11-07, 03:04:00,VALID,0,VALID,100,VALID,0,VALID,18.8166,VALID,207,VALID,0,
1999-11-07, 03:05:00,VALID,0,VALID,100,VALID,0.0169808,VALID,18.8397,VALID,108,VALID,0,
1999-11-07, 03:06:00,VALID,0,VALID,100,VALID,0.0169808,VALID,18.8397,VALID,51,VALID,0,
1999-11-07, 03:07:00,VALID,0,VALID,100,VALID,0.0169808,VALID,18.8233,VALID,292,VALID,0,
1999-11-07, 03:08:01,VALID,0,VALID,100,VALID,-0.0169808,VALID,18.8007,VALID,226,VALID,0,
1999-11-07, 03:09:01,VALID,0,VALID,100,VALID,0,VALID,18.7907,VALID,102,VALID,0,
1999-11-07, 03:10:00,VALID,0,VALID,100,VALID,0.0169808,VALID,18.8166,VALID,102,VALID,0,
1999-11-07, 03:11:00,VALID,0,VALID,100,VALID,0,VALID,18.8104,VALID,12,VALID,0,
1999-11-07, 03:12:00,VALID,0,VALID,100,VALID,0,VALID,18.7845,VALID,281,VALID,0,
1999-11-07, 03:13:00,VALID,0,VALID,100,VALID,0.0169808,VALID,18.7713,VALID,7,VALID,0,
1999-11-07, 03:14:00,VALID,0,VALID,100,VALID,0,VALID,18.7977,VALID,50,VALID,0,
1999-11-07, 03:15:00,VALID,0,VALID,100,VALID,0.0169808,VALID,18.8004,VALID,49,VALID,0,
1999-11-07, 03:16:00,VALID,0,VALID,100,VALID,0.0339617,VALID,18.8032,VALID,49,VALID,0,
1999-11-07, 03:17:00,VALID,0,VALID,100,VALID,0.0169808,VALID,18.8258,VALID,49,VALID,0,
1999-11-07, 03:18:00,VALID,0,VALID,100,VALID,0.0169808,VALID,18.8424,VALID,49,VALID,0,
1999-11-07, 03:19:00,VALID,0,VALID,100,VALID,0,VALID,18.8293,VALID,318,VALID,0,
1999-11-07, 03:20:01,VALID,0,VALID,100,VALID,-0.0169808,VALID,18.7967,VALID,298,VALID,0,
1999-11-07, 03:21:00,VALID,0,VALID,100,VALID,0.0169808,VALID,18.7746,VALID,297,VALID,0,
1999-11-07, 03:22:00,VALID,0,VALID,100,VALID,0.0339617,VALID,18.7711,VALID,297,VALID,0,
1999-11-07, 03:23:00,VALID,0,VALID,100,VALID,0.0339617,VALID,18.7746,VALID,299,VALID,0,
1999-11-07, 03:24:00,VALID,0,VALID,100,VALID,0.0339617,VALID,18.7873,VALID,354,VALID,0,
1999-11-07, 03:25:00,VALID,0,VALID,100,VALID,0.0169808,VALID,18.8196,VALID,96,VALID,0,
1999-11-07, 03:26:00,VALID,0,VALID,100,VALID,0.0339617,VALID,18.8487,VALID,98,VALID,0,
1999-11-07, 03:27:00,VALID,0,VALID,100,VALID,0.0169808,VALID,18.872,VALID,90,VALID,0,
1999-11-07, 03:28:00,VALID,0,VALID,100,VALID,-0.0509425,VALID,18.8563,VALID,106,VALID,0,
1999-11-07, 03:29:00,VALID,0,VALID,100,VALID,-0.0679233,VALID,18.8503,VALID,99,VALID,0,
1999-11-07, 03:30:00,VALID,0,VALID,100,VALID,-0.101885,VALID,18.8697,VALID,105,VALID,0,
1999-11-07, 03:31:01,VALID,0,VALID,100,VALID,-0.0679233,VALID,18.8924,VALID,100,VALID,0,
1999-11-07, 03:32:00,VALID,0,VALID,100,VALID,-0.0849042,VALID,18.8956,VALID,86,VALID,0,
1999-11-07, 03:33:00,VALID,0,VALID,100,VALID,-0.0849042,VALID,18.8889,VALID,97,VALID,0,
1999-11-07, 03:34:00,VALID,0,VALID,100,VALID,-0.0849042,VALID,18.8792,VALID,156,VALID,0,
1999-11-07, 03:35:00,VALID,0,VALID,100,VALID,-0.101885,VALID,18.8762,VALID,126,VALID,0,
1999-11-07, 03:36:00,VALID,0,VALID,100,VALID,-0.0849042,VALID,18.8628,VALID,122,VALID,0,
1999-11-07, 03:37:00,VALID,0,VALID,100,VALID,-0.0509425,VALID,18.8792,VALID,119,VALID,0,
1999-11-07, 03:38:00,VALID,0,VALID,100,VALID,-0.0849042,VALID,18.8824,VALID,119,VALID,0,
1999-11-07, 03:39:00,VALID,0.2,VALID,100,VALID,-0.0849042,VALID,18.8924,VALID,119,VALID,0,
1999-11-07, 03:40:00,VALID,0,VALID,100,VALID,-0.0849042,VALID,18.8857,VALID,119,VALID,0,
1999-11-07, 03:41:00,VALID,0,VALID,100,VALID,-0.0849042,VALID,18.8891,VALID,119,VALID,0,
1999-11-07, 03:42:00,VALID,0,VALID,100,VALID,-0.0679233,VALID,18.8658,VALID,175,VALID,0,
1999-11-07, 03:43:00,VALID,0,VALID,100,VALID,0.0169808,VALID,18.8584,VALID,186,VALID,0,
1999-11-07, 03:44:00,VALID,0,VALID,100,VALID,0,VALID,18.8651,VALID,180,VALID,0,
1999-11-07, 03:45:00,VALID,0.2,VALID,100,VALID,0,VALID,18.8586,VALID,171,VALID,0,
1999-11-07, 03:46:00,VALID,0,VALID,100,VALID,0,VALID,18.8489,VALID,170,VALID,0,
1999-11-07, 03:47:00,VALID,0,VALID,100,VALID,0,VALID,18.839,VALID,155,VALID,0,
1999-11-07, 03:48:00,VALID,0.2,VALID,100,VALID,0.0169808,VALID,18.8263,VALID,196,VALID,0,
1999-11-07, 03:49:00,VALID,0,VALID,100,VALID,0,VALID,18.8166,VALID,214,VALID,0,
1999-11-07, 03:50:00,VALID,0.2,VALID,100,VALID,0.0169808,VALID,18.83,VALID,210,VALID,0,
1999-11-07, 03:51:00,VALID,0,VALID,100,VALID,0,VALID,18.7903,VALID,248,VALID,0.166066,
1999-11-07, 03:52:00,VALID,0,VALID,100,VALID,0.0339617,VALID,18.7903,VALID,92,VALID,0.654046,
1999-11-07, 03:53:00,VALID,0.2,VALID,100,VALID,0.0339617,VALID,18.7967,VALID,98,VALID,0.884014,
1999-11-07, 03:54:00,VALID,0,VALID,100,VALID,0.0169808,VALID,18.8034,VALID,106,VALID,1.3641,
1999-11-07, 03:55:00,VALID,0,VALID,100,VALID,0,VALID,18.8099,VALID,117,VALID,0.836914,
1999-11-07, 03:56:00,VALID,0,VALID,100,VALID,0,VALID,18.8069,VALID,73,VALID,0.954153,
1999-11-07, 03:57:00,VALID,0,VALID,100,VALID,0,VALID,18.7974,VALID,323,VALID,0.0989583,
1999-11-07, 03:58:00,VALID,0,VALID,100,VALID,0.0339617,VALID,18.7875,VALID,13,VALID,0,
1999-11-07, 03:59:00,VALID,0,VALID,100,VALID,0.0679233,VALID,18.7808,VALID,136,VALID,0.529811,
1999-11-07, 04:00:00,VALID,0,VALID,100,VALID,0,VALID,18.7778,VALID,351,VALID,0.788491,
1999-11-07, 04:01:00,VALID,0,VALID,100,VALID,0.0339617,VALID,18.7679,VALID,218,VALID,0.382179,
1999-11-07, 04:02:00,VALID,0,VALID,100,VALID,0,VALID,18.7778,VALID,159,VALID,0.20633,
1999-11-07, 04:03:00,VALID,0,VALID,100,VALID,0.0169808,VALID,18.7746,VALID,115,VALID,0.842928,
1999-11-07, 04:04:00,VALID,0,VALID,100,VALID,0.0169808,VALID,18.7838,VALID,97,VALID,1.08277,
1999-11-07, 04:05:00,VALID,0,VALID,100,VALID,0.0169808,VALID,18.8062,VALID,94,VALID,1.09128,
1999-11-07, 04:06:00,VALID,0.2,VALID,100,VALID,0.0679233,VALID,18.8163,VALID,86,VALID,0.88713,
1999-11-07, 04:07:00,VALID,0,VALID,100,VALID,0.0509425,VALID,18.8131,VALID,109,VALID,0.513867,
1999-11-07, 04:08:00,VALID,0.2,VALID,100,VALID,0.0509425,VALID,18.8163,VALID,93,VALID,1.1273,
1999-11-07, 04:09:00,VALID,0.2,VALID,100,VALID,0.0339617,VALID,18.8096,VALID,63,VALID,0.0135135,
1999-11-07, 04:10:00,VALID,0,VALID,100,VALID,0.0169808,VALID,18.7932,VALID,240,VALID,0.724954,
1999-11-07, 04:11:00,VALID,0,VALID,100,VALID,0,VALID,18.7873,VALID,199,VALID,0.403863,
1999-11-07, 04:12:00,VALID,0.2,VALID,100,VALID,0.0509425,VALID,18.7907,VALID,194,VALID,0.742393,
1999-11-07, 04:13:00,VALID,0,VALID,100,VALID,-0.0849042,VALID,18.7887,VALID,253,VALID,0.19634,
1999-11-07, 04:14:00,VALID,0,VALID,100,VALID,-0.0849042,VALID,18.7947,VALID,221,VALID,0.453316,
1999-11-07, 04:15:00,VALID,0,VALID,100,VALID,-0.0509425,VALID,18.782,VALID,268,VALID,0.565456,
1999-11-07, 04:16:00,VALID,0,VALID,100,VALID,-0.101885,VALID,18.772,VALID,208,VALID,0.422931,
1999-11-07, 04:17:00,VALID,0,VALID,100,VALID,-0.0339617,VALID,18.7753,VALID,279,VALID,0.126439,
1999-11-07, 04:18:00,VALID,0,VALID,100,VALID,-0.0509425,VALID,18.782,VALID,126,VALID,0.0847656,
1999-11-07, 04:19:00,VALID,0,VALID,100,VALID,-0.0679233,VALID,18.7914,VALID,108,VALID,0.67272,
1999-11-07, 04:20:00,VALID,0,VALID,100,VALID,-0.0679233,VALID,18.7917,VALID,282,VALID,0.669779,
1999-11-07, 04:21:00,VALID,0,VALID,100,VALID,-0.101885,VALID,18.769,VALID,128,VALID,0.598606,
1999-11-07, 04:22:00,VALID,0,VALID,100,VALID,-0.0679233,VALID,18.7656,VALID,42,VALID,0.89886,
1999-11-07, 04:23:00,VALID,0.2,VALID,100,VALID,-0.0849042,VALID,18.7785,VALID,269,VALID,0.607973,
1999-11-07, 04:24:00,VALID,0,VALID,100,VALID,-0.0169808,VALID,18.782,VALID,194,VALID,0.596834,